• In Uzbekistan
  • List of Countries
  • For 7 days
  • Water Temperature
  • Satellite Maps
  • Weather Map
  • Weather Widgets
  • user-avatar
    Login

    Hourly Weather Batumi

    Today, 23 November, Thursday

    Time Temperature Precipitation Wind Pressure Humidity
    00:00 +4°C° 0.3 mm 3 mps 762 mmHg 86%
    01:00 +4°C° 0.1 mm 3 mps 762 mmHg 85%
    02:00 +3°C° 0.1 mm 3 mps 762 mmHg 84%
    03:00 +3°C° 0.1 mm 4 mps 761 mmHg 83%
    04:00 +3°C° 0.2 mm 4 mps 761 mmHg 82%
    05:00 +3°C° 0.2 mm 4 mps 761 mmHg 81%
    06:00 +2°C° 0.2 mm 5 mps 761 mmHg 80%
    07:00 +3°C° 1.6 mm 5 mps 761 mmHg 80%
    08:00 +3°C° 1.6 mm 5 mps 761 mmHg 80%
    09:00 +4°C° 0 mm 7 mps 760 mmHg 76%
    10:00 +4°C° 1.7 mm 7 mps 761 mmHg 80%
    11:00 +5°C° 1.7 mm 7 mps 761 mmHg 83%
    12:00 +5°C° 1.7 mm 7 mps 762 mmHg 86%
    13:00 +4°C° 1.4 mm 6 mps 762 mmHg 86%
    14:00 +4°C° 1.4 mm 6 mps 763 mmHg 87%
    15:00 +3°C° 0 mm 6 mps 763 mmHg 89%
    16:00 +3°C° 0.9 mm 6 mps 763 mmHg 89%
    17:00 +3°C° 0.9 mm 5 mps 764 mmHg 88%
    18:00 +2°C° 0.9 mm 5 mps 765 mmHg 88%
    19:00 +3°C° 1 mm 4 mps 765 mmHg 86%
    20:00 +3°C° 1 mm 4 mps 765 mmHg 85%
    21:00 +3°C° 1 mm 4 mps 766 mmHg 83%
    22:00 +3°C° 0.9 mm 4 mps 766 mmHg 83%
    23:00 +1°C° 0.9 mm 4 mps 766 mmHg 82%

    Tomorrow, 24 November, Friday

    Time Temperature Precipitation Wind Pressure Humidity
    00:00 +2°C° 0.9 mm 3 mps 766 mmHg 81%
    01:00 +2°C° 0.8 mm 3 mps 767 mmHg 81%
    02:00 +2°C° 0.8 mm 3 mps 767 mmHg 81%
    03:00 +2°C° 0.8 mm 3 mps 767 mmHg 81%
    04:00 +2°C° 0.7 mm 3 mps 767 mmHg 80%
    05:00 +2°C° 0.7 mm 3 mps 767 mmHg 80%
    06:00 +2°C° 0.7 mm 3 mps 767 mmHg 80%
    07:00 +3°C° 0.6 mm 3 mps 767 mmHg 78%
    08:00 +3°C° 0.6 mm 4 mps 767 mmHg 76%
    09:00 +4°C° 0.6 mm 4 mps 767 mmHg 74%
    10:00 +4°C° 0.5 mm 4 mps 767 mmHg 72%
    11:00 +5°C° 0.5 mm 4 mps 767 mmHg 69%
    12:00 +6°C° 0.5 mm 4 mps 766 mmHg 66%
    13:00 +5°C° 0.7 mm 4 mps 766 mmHg 68%
    14:00 +5°C° 0.7 mm 4 mps 766 mmHg 69%
    15:00 +5°C° 0.7 mm 4 mps 766 mmHg 70%
    16:00 +4°C° 1.2 mm 4 mps 766 mmHg 70%
    17:00 +3°C° 1.2 mm 4 mps 767 mmHg 71%
    18:00 +1°C° 1.2 mm 4 mps 768 mmHg 71%
    19:00 +1°C° 1.6 mm 4 mps 768 mmHg 74%
    20:00 +1°C° 1.6 mm 4 mps 768 mmHg 78%
    21:00 +1°C° 1.6 mm 4 mps 768 mmHg 81%
    22:00 +1°C° 1.5 mm 4 mps 769 mmHg 83%
    23:00 +3°C° 1.5 mm 4 mps 769 mmHg 84%

    Day after tomorrow, 25 November, Saturday

    Time Temperature Precipitation Wind Pressure Humidity
    00:00 +3°C° 1.5 mm 4 mps 769 mmHg 86%
    01:00 +3°C° 1.2 mm 4 mps 770 mmHg 86%
    02:00 +3°C° 1.2 mm 4 mps 770 mmHg 86%
    03:00 +3°C° 1.2 mm 4 mps 771 mmHg 86%
    04:00 +3°C° 0.6 mm 4 mps 771 mmHg 85%
    05:00 +3°C° 0.6 mm 3 mps 772 mmHg 84%
    06:00 +3°C° 0.6 mm 3 mps 772 mmHg 82%
    07:00 +3°C° 0.1 mm 3 mps 773 mmHg 79%
    08:00 +5°C° 0.1 mm 2 mps 773 mmHg 76%
    09:00 +5°C° 0.1 mm 2 mps 773 mmHg 73%
    10:00 +6°C° 0 mm 2 mps 773 mmHg 69%
    11:00 +8°C° 0 mm 2 mps 772 mmHg 65%
    12:00 +10°C° 0 mm 1 mps 772 mmHg 62%
    13:00 +9°C° 0 mm 2 mps 771 mmHg 62%
    14:00 +9°C° 0 mm 2 mps 771 mmHg 62%
    15:00 +9°C° 0 mm 2 mps 771 mmHg 62%
    16:00 +7°C° 0 mm 3 mps 771 mmHg 65%
    17:00 +5°C° 0 mm 3 mps 772 mmHg 67%
    18:00 +3°C° 0 mm 4 mps 772 mmHg 69%
    19:00 +3°C° 0 mm 4 mps 772 mmHg 66%
    20:00 +3°C° 0 mm 4 mps 772 mmHg 64%
    21:00 +1°C° 0 mm 4 mps 772 mmHg 62%
    22:00 +1°C° 0 mm 4 mps 772 mmHg 60%
    23:00 +3°C° 0 mm 4 mps 772 mmHg 59%

    26 November, Sunday

    Time Temperature Precipitation Wind Pressure Humidity
    00:00 +3°C° 0 mm 4 mps 772 mmHg 57%
    01:00 +3°C° 0 mm 4 mps 771 mmHg 56%
    02:00 +3°C° 0 mm 4 mps 771 mmHg 55%
    03:00 +3°C° 0 mm 4 mps 771 mmHg 55%
    04:00 +3°C° 0 mm 4 mps 771 mmHg 54%
    05:00 +3°C° 0 mm 4 mps 771 mmHg 53%
    06:00 +3°C° 0 mm 4 mps 771 mmHg 53%
    07:00 +4°C° 0 mm 4 mps 770 mmHg 54%
    08:00 +5°C° 0 mm 4 mps 770 mmHg 55%
    09:00 +6°C° 0 mm 4 mps 770 mmHg 55%
    10:00 +8°C° 0 mm 4 mps 769 mmHg 55%
    11:00 +11°C° 0 mm 4 mps 768 mmHg 55%
    12:00 +13°C° 0 mm 3 mps 767 mmHg 55%
    13:00 +13°C° 0 mm 3 mps 767 mmHg 59%
    14:00 +13°C° 0 mm 3 mps 766 mmHg 62%
    15:00 +13°C° 0 mm 3 mps 766 mmHg 65%
    16:00 +11°C° 0 mm 3 mps 766 mmHg 64%
    17:00 +8°C° 0 mm 4 mps 767 mmHg 63%
    18:00 +6°C° 0 mm 4 mps 767 mmHg 63%
    19:00 +6°C° 0 mm 4 mps 767 mmHg 61%
    20:00 +6°C° 0 mm 4 mps 768 mmHg 60%
    21:00 +5°C° 0 mm 4 mps 768 mmHg 59%
    22:00 +5°C° 0 mm 4 mps 768 mmHg 59%
    23:00 +5°C° 0 mm 4 mps 768 mmHg 59%

    27 November, Monday

    Time Temperature Precipitation Wind Pressure Humidity
    00:00 +5°C° 0 mm 4 mps 768 mmHg 59%
    01:00 +5°C° 0 mm 4 mps 768 mmHg 59%
    02:00 +5°C° 0 mm 4 mps 768 mmHg 59%
    03:00 +5°C° 0 mm 4 mps 767 mmHg 59%
    04:00 +5°C° 0 mm 4 mps 767 mmHg 59%
    05:00 +5°C° 0 mm 4 mps 767 mmHg 60%
    06:00 +5°C° 0 mm 4 mps 767 mmHg 60%
    07:00 +6°C° 0 mm 4 mps 767 mmHg 61%
    08:00 +8°C° 0 mm 4 mps 767 mmHg 62%
    09:00 +10°C° 0 mm 3 mps 767 mmHg 63%
    10:00 +11°C° 0 mm 3 mps 766 mmHg 63%
    11:00 +13°C° 0 mm 3 mps 765 mmHg 63%
    12:00 +15°C° 0 mm 2 mps 764 mmHg 63%
    13:00 +15°C° 0 mm 2 mps 764 mmHg 65%
    14:00 +15°C° 0 mm 2 mps 764 mmHg 67%
    15:00 +15°C° 0 mm 2 mps 763 mmHg 69%
    16:00 +12°C° 0 mm 3 mps 764 mmHg 69%
    17:00 +11°C° 0 mm 3 mps 764 mmHg 69%
    18:00 +8°C° 0 mm 4 mps 764 mmHg 68%
    19:00 +8°C° 0 mm 4 mps 764 mmHg 68%
    20:00 +8°C° 0 mm 4 mps 765 mmHg 67%
    21:00 +8°C° 0 mm 4 mps 765 mmHg 67%
    22:00 +8°C° 0 mm 4 mps 765 mmHg 67%
    23:00 +8°C° 0 mm 4 mps 764 mmHg 68%

    28 November, Tuesday

    Time Temperature Precipitation Wind Pressure Humidity
    00:00 +7°C° 0 mm 4 mps 764 mmHg 68%
    01:00 +7°C° 0 mm 4 mps 764 mmHg 68%
    02:00 +7°C° 0 mm 4 mps 764 mmHg 69%
    03:00 +7°C° 0 mm 4 mps 764 mmHg 69%
    04:00 +7°C° 0 mm 4 mps 764 mmHg 70%
    05:00 +7°C° 0 mm 4 mps 763 mmHg 70%
    06:00 +7°C° 0 mm 4 mps 763 mmHg 70%
    07:00 +8°C° 0 mm 4 mps 763 mmHg 70%
    08:00 +10°C° 0 mm 4 mps 763 mmHg 70%
    09:00 +11°C° 0 mm 4 mps 763 mmHg 70%
    10:00 +12°C° 0 mm 4 mps 762 mmHg 69%
    11:00 +14°C° 0 mm 4 mps 761 mmHg 69%
    12:00 +16°C° 0 mm 3 mps 760 mmHg 69%
    13:00 +16°C° 0 mm 3 mps 760 mmHg 72%
    14:00 +14°C° 0 mm 3 mps 760 mmHg 74%
    15:00 +14°C° 0 mm 4 mps 760 mmHg 77%
    16:00 +14°C° 0.2 mm 4 mps 760 mmHg 77%
    17:00 +13°C° 0.2 mm 4 mps 760 mmHg 78%
    18:00 +12°C° 0.2 mm 4 mps 760 mmHg 78%
    19:00 +12°C° 0.1 mm 4 mps 760 mmHg 78%
    20:00 +12°C° 0.1 mm 4 mps 761 mmHg 78%
    21:00 +12°C° 0.1 mm 4 mps 761 mmHg 78%
    22:00 +12°C° 0.1 mm 4 mps 761 mmHg 79%
    23:00 +11°C° 0.1 mm 3 mps 761 mmHg 79%
    Show more